Weather History for KLNS - November, 2014

Change the Weather History Date:

Wednesday, November 19, 2014

  Actual Average Record
Temperature  
Mean Temperature 23 °F -  
Max Temperature 32 °F 50 °F 104 °F (1996)
Min Temperature 16 °F 33 °F 16 °F (2014)
Degree Days  
Heating Degree Days 42    
Moisture  
Dew Point 7 °F    
Average Humidity 49    
Maximum Humidity 68    
Minimum Humidity 38    
Precipitation  
Precipitation 0.00 in - - ()
Sea Level Pressure  
Sea Level Pressure 30.20 in    
Wind  
Wind Speed 10 mph (SW)    
Max Wind Speed 15 mph    
Max Gust Speed 22 mph    
Visibility 10 miles    
Events      
Averages and records for this station are not official NWS values.
T = Trace of Precipitation, MM = Missing Value Source: NWS Daily Summary

Daily Weather History Graph

Daily Weather History Graph

Search for Another Location

Airport or City:

Trip Planner

Search our weather history database for the weather conditions in past years. The results will help you decide how hot, cold, wet, or windy it might be!

Date:

Astronomy

Nov. 19, 2014 Rise Set
Actual Time 6:55 AM EST 4:45 PM EST
Civil Twilight 6:25 AM EST 5:14 PM EST
Nautical Twilight 5:52 AM EST 5:47 PM EST
Astronomical Twilight 5:20 AM EST 6:20 PM EST
Moon 3:48 AM EST (11/19) 3:12 PM EST (11/19)
Length of Visible Light 10h 49m
Length of Day
9h 50m
Waning Crescent, 9% of the Moon is Illuminated
Nov 19
Waning Crescent
Nov 22
New
Nov 29
First Quarter
Dec 6
Full
Dec 14
Last Quarter

Hourly Weather History & Observations

Time (EST) Temp. Windchill Dew Point Humidity Pressure Visibility Wind Dir Wind Speed Gust Speed Precip Events Conditions
12:53 AM 19.9 °F 6.2 °F 6.1 °F 55% 30.21 in 10.0 mi West 15.0 mph - N/A   Clear
1:53 AM 19.0 °F 7.5 °F 7.0 °F 59% 30.23 in 10.0 mi West 10.4 mph - N/A   Clear
2:53 AM 18.0 °F 5.4 °F 5.0 °F 57% 30.24 in 10.0 mi West 11.5 mph - N/A   Clear
3:53 AM 18.0 °F 6.9 °F 5.0 °F 57% 30.24 in 10.0 mi West 9.2 mph - N/A   Clear
4:53 AM 17.1 °F 7.6 °F 5.0 °F 59% 30.26 in 10.0 mi West 6.9 mph - N/A   Clear
5:53 AM 16.0 °F 6.3 °F 5.0 °F 62% 30.27 in 10.0 mi WSW 6.9 mph - N/A   Clear
6:53 AM 16.0 °F 10.4 °F 5.0 °F 62% 30.31 in 10.0 mi SSW 3.5 mph - N/A   Clear
7:53 AM 19.0 °F 10.0 °F 6.1 °F 57% 30.32 in 10.0 mi West 6.9 mph - N/A   Clear
8:53 AM 21.9 °F 9.8 °F 6.1 °F 51% 30.32 in 10.0 mi West 12.7 mph - N/A   Clear
9:53 AM 24.1 °F 13.1 °F 5.0 °F 44% 30.32 in 10.0 mi West 11.5 mph 21.9 mph N/A   Clear
10:53 AM 25.0 °F 14.2 °F 5.0 °F 43% 30.30 in 10.0 mi West 11.5 mph - N/A   Clear
11:53 AM 27.0 °F 19.5 °F 6.1 °F 41% 30.27 in 10.0 mi WSW 6.9 mph 16.1 mph N/A   Clear
12:53 PM 27.0 °F 17.3 °F 6.1 °F 41% 30.24 in 10.0 mi WSW 10.4 mph - N/A   Scattered Clouds
1:53 PM 28.0 °F 18.1 °F 5.0 °F 38% 30.21 in 10.0 mi West 11.5 mph - N/A   Clear
2:53 PM 28.9 °F 20.4 °F 7.0 °F 40% 30.18 in 10.0 mi SW 9.2 mph - N/A   Clear
3:53 PM 28.9 °F 20.4 °F 7.0 °F 40% 30.17 in 10.0 mi SSW 9.2 mph - N/A   Clear
4:53 PM 28.9 °F 19.2 °F 8.1 °F 41% 30.13 in 10.0 mi South 11.5 mph - N/A   Overcast
5:53 PM 28.9 °F 21.9 °F 8.1 °F 41% 30.12 in 10.0 mi South 6.9 mph - N/A   Partly Cloudy
6:53 PM 28.0 °F 20.0 °F 8.1 °F 43% 30.11 in 10.0 mi SSW 8.1 mph - N/A   Clear
7:53 PM 28.9 °F 21.1 °F 9.0 °F 43% 30.09 in 10.0 mi South 8.1 mph - N/A   Clear
8:53 PM 28.9 °F 22.8 °F 10.0 °F 45% 30.08 in 10.0 mi South 5.8 mph - N/A   Partly Cloudy
9:53 PM 23.0 °F 14.7 °F 14.0 °F 68% 30.06 in 10.0 mi East 6.9 mph - N/A   Clear
10:53 PM 30.9 °F 24.3 °F 12.0 °F 46% 30.03 in 10.0 mi SSW 6.9 mph - N/A   Overcast
11:53 PM 32.0 °F 26.4 °F 10.9 °F 42% 30.01 in 10.0 mi SW 5.8 mph - N/A   Clear